Regional Weather Roundup
Issued by NWS

Home | Current Version | Previous Version | Text Only | Print | Product List | Glossary Off
Versions: 1 2 3 4 5 6 7 8 9 10 11 12 13 14 15 16 17 18 19 20 21 22 23 24 25 26 27 28 29 30 31 32 33 34 35 36 37 38 39 40 41 42 43 44 45 46 47 48 49 50

000
ASUS43 KDTX 201710
RWRMI
MICHIGAN HOURLY REGIONAL WEATHER ROUNDUP
NATIONAL WEATHER SERVICE DETROIT/PONTIAC MI
100 PM EDT MON OCT 20 2014

NOTE: "FAIR" INDICATES FEW OR NO CLOUDS BELOW 12,000 FEET WITH NO
SIGNIFICANT WEATHER AND/OR OBSTRUCTION TO VISIBILITY.

MIZ047>049-052>055-059>063-066>070-074>076-081>083-201800-
SOUTHEAST LOWER MICHIGAN

CITY           SKY/WX    TMP DP  RH WIND       PRES   REMARKS
ADRIAN         LGT RAIN  53  46  77 SW13      29.82F
ALMA           MOSUNNY   58  49  70 W6        29.79F
ANN ARBOR      LGT RAIN  53  46  77 SW6       29.81F
BAD AXE        CLOUDY    52  50  93 W9        29.78F
CARO           CLOUDY    52  47  83 SW7       29.79S
DETROIT CITY   CLOUDY    56  45  66 SW12      29.81F
DETROIT        CLOUDY    55  46  71 S10       29.82F
FLINT          CLOUDY    57  47  69 SW10      29.80S
GROSSE ILE     CLOUDY    55  46  71 SW6       29.81F
HILLSDALE      RAIN      52  51  99 NW5       29.80F
HOWELL         CLOUDY    54  47  76 SW9       29.80S

CITY           SKY/WX    TMP DP  RH WIND       PRES   REMARKS
JACKSON        PTSUNNY   55  46  71 W8        29.80F
LAMBERTVILLE   CLOUDY    59  46  63 SW10G18   29.84F
LANSING        CLOUDY    54  46  74 W8        29.81F
LAPEER         CLOUDY    53  46  75 SW8       29.80S
MASON          CLOUDY    55  47  74 W10       29.81S
MONROE         PTSUNNY   57  46  67 SW15G21   29.81F
MT. CLEMENS    PTSUNNY   55  45  69 SW9       29.79F
PONTIAC        PTSUNNY   53  45  74 W10       29.80F
PORT HOPE        N/A     51  47  86 VRB5      29.77S
PORT HURON     CLOUDY    52  46  82 S8        29.80F
TRI CITIES     CLOUDY    55  48  77 SW8       29.80S
TROY           CLOUDY    54  46  73 SW8       29.82F
SAGINAW HB     CLOUDY    54  48  82 W7        29.78F
$$
MIZ043>046-050>051-056>058-064>065-071>073-077>080-201800-
SOUTHWEST LOWER MICHIGAN

CITY           SKY/WX    TMP DP  RH WIND       PRES   REMARKS
BATTLE CREEK   CLOUDY    52  46  80 SW9       29.82F
BENTON HARBOR  CLOUDY    54  48  80 W9        29.83S
BIG RAPIDS     CLOUDY    55  52  89 NW7       29.79R
COLDWATER      LGT RAIN  52  50  94 W7        29.82R
FREMONT        CLOUDY    55  48  78 NW6       29.80S HAZE
HOLLAND        MOSUNNY   59  50  72 W6        29.82S
GRAND RAPIDS   PTSUNNY   57  49  74 SW10      29.80F
IONIA          CLOUDY    57  48  73 SW12      29.79F
KALAMAZOO      CLOUDY    53  48  83 SW7       29.83S
LUDINGTON      CLOUDY    55  50  83 N7G16     29.83R
MARSHALL       CLOUDY    51  46  83 W9        29.82R
MOUNT PLEASANT CLOUDY    56  48  76 W7        29.78S
MUSKEGON       CLOUDY    57  48  72 W8        29.81S
SOUTH HAVEN    CLOUDY    56  50  80 W9        29.82S
$$
MIZ016>042-201800-
NORTHERN LOWER MICHIGAN

CITY           SKY/WX    TMP DP  RH WIND       PRES   REMARKS
ALPENA         CLOUDY    51  48  89 W3        29.76S
BEAVER ISLAND  CLOUDY    48  44  85 NW8       29.81R
BELLAIRE       CLOUDY    50  43  78 NW7       29.81R
CADILLAC       CLOUDY    53  47  81 NW10      29.78S
CHARLEVOIX     CLOUDY    49  46  87 NW9       29.83S
FRANKFORT      CLOUDY    51  44  76 N8        29.83R
GAYLORD        CLOUDY    48  42  80 W8        29.77F
GRAYLING       CLOUDY    54  48  81 W10       29.78F
HARBOR SPRINGS CLOUDY    50  45  81 W5        29.79S
HOUGHTON LAKE  CLOUDY    52  46  80 NW9       29.78F
MANISTEE       CLOUDY    52  45  76 N7        29.83R
OSCODA         CLOUDY    50  48  93 W5        29.76S
PELLSTON       CLOUDY    49  44  83 NW13      29.79R
ROGERS CITY    CLOUDY    50  48  93 NW6       29.77
TRAVERSE CITY  CLOUDY    51  43  74 N8        29.81R
$$
MIZ007>008-015-201800-
EASTERN UPPER MICHIGAN

CITY           SKY/WX    TMP DP  RH WIND       PRES   REMARKS
KINROSS        CLOUDY    46  46 100 NW9       29.77R
MACKINAC ISLAN CLOUDY    48  45  87 NW7       29.77S
NEWBERRY       CLOUDY    44  42  93 NW9       29.80R
S. S. MARIE    CLOUDY    49  45  86 NW10      29.76R
MUNISING         N/A     48  42  80 N17G25    29.84R
$$
MIZ004>006-011>014-085-201800-
CENTRAL UPPER MICHIGAN

CITY           SKY/WX    TMP DP  RH WIND       PRES   REMARKS
MANISTIQUE     CLOUDY    47  42  82 NW17G25   29.81S
ESCANABA       CLOUDY    46  41  81 NW9       29.85R
MENOMINEE      CLOUDY    50  43  76 N12       29.86R
SAWYER-GWINN   CLOUDY    43  41  93 N12       29.86R FOG
$$
MIZ001>003-009>011-084-201800-
WESTERN UPPER MICHIGAN

CITY           SKY/WX    TMP DP  RH WIND       PRES   REMARKS
IRON MOUNTAIN  CLOUDY    47  42  83 NW12      29.87R
HOUGHTON       CLOUDY    45  40  82 N8        29.89R
COPPER HARBOR    N/A     46  41  82 N21       29.88R
IRONWOOD       CLOUDY    48  43  81 N7        29.92R
$$

ABBREVIATIONS USED IN REMARKS
   TC - TEMPERATURE IN CELSIUS
  WCI - WIND CHILL INDEX
   HX - HEAT INDEX
  VSB - VISIBILITY




USA.gov is the U.S. government's official web portal to all federal, state and local government web resources and services.